| time (UTC) | temp C | wind direction | speed KPH | gust KPH | rain 1hr cm | rain 24hr cm | rain mn cm | humidity % | barometer mb |
| 20260906040208 | 22 | 193 | 0.0 | 0.0 | 0.00 | 0.00 | 0.00 | 55 | 1010.4 |
| 20260906035703 | 22 | 174 | 1.6 | 1.6 | 0.00 | 0.00 | 0.00 | 55 | 1010.4 |
| 20260906035159 | 22 | 183 | 0.0 | 1.6 | 0.00 | 0.00 | 0.00 | 55 | 1010.3 |
| 20260906034653 | 22 | 156 | 1.6 | 1.6 | 0.00 | 0.00 | 0.00 | 55 | 1010.4 |
| 20260906034148 | 22 | 150 | 1.6 | 1.6 | 0.00 | 0.00 | 0.00 | 54 | 1010.3 |
| 20260906033644 | 22 | 172 | 0.0 | 0.0 | 0.00 | 0.00 | 0.00 | 54 | 1010.3 |
| 20260906033143 | 23 | 322 | 1.6 | 3.2 | 0.00 | 0.00 | 0.00 | 54 | 1010.2 |
| 20260906032640 | 23 | 12 | 1.6 | 3.2 | 0.00 | 0.00 | 0.00 | 54 | 1010.0 |
| 20260906032140 | 23 | 157 | 0.0 | 1.6 | 0.00 | 0.00 | 0.00 | 53 | 1010.2 |
| 20260906031635 | 23 | 214 | 1.6 | 1.6 | 0.00 | 0.00 | 0.00 | 53 | 1010.1 |
| 20260906031131 | 23 | 315 | 1.6 | 3.2 | 0.00 | 0.00 | 0.00 | 53 | 1010.2 |
| 20260906030630 | 23 | 313 | 1.6 | 1.6 | 0.00 | 0.00 | 0.00 | 53 | 1010.2 |
| 20260906030125 | 23 | 109 | 1.6 | 1.6 | 0.00 | 0.00 | 0.00 | 53 | 1010.1 |
| 20260906025625 | 23 | 181 | 0.0 | 1.6 | 0.00 | 0.00 | 0.00 | 52 | 1010.1 |
| 20260906025124 | 23 | 200 | 0.0 | 1.6 | 0.00 | 0.00 | 0.00 | 52 | 1010.0 |
| 20260906024619 | 23 | 134 | 0.0 | 1.6 | 0.00 | 0.00 | 0.00 | 53 | 1010.1 |
| 20260906024113 | 23 | 197 | 0.0 | 1.6 | 0.00 | 0.00 | 0.00 | 53 | 1009.8 |
| 20260906023609 | 23 | 188 | 1.6 | 1.6 | 0.00 | 0.00 | 0.00 | 54 | 1010.0 |
| 20260906023109 | 23 | 182 | 0.0 | 1.6 | 0.00 | 0.00 | 0.00 | 54 | 1010.1 |
| 20260906022604 | 23 | 163 | 0.0 | 1.6 | 0.00 | 0.00 | 0.00 | 55 | 1009.9 |
| 20260906022100 | 23 | 164 | 0.0 | 1.6 | 0.00 | 0.00 | 0.00 | 55 | 1009.8 |
| 20260906021556 | 23 | 171 | 0.0 | 0.0 | 0.00 | 0.00 | 0.00 | 54 | 1009.9 |
| 20260906021054 | 23 | 287 | 3.2 | 4.8 | 0.00 | 0.00 | 0.00 | 54 | 1010.0 |
| 20260906020554 | 23 | 159 | 0.0 | 1.6 | 0.00 | 0.00 | 0.00 | 55 | 1009.7 |
| 20260906020054 | 23 | 161 | 3.2 | 4.8 | 0.00 | 0.00 | 0.00 | 55 | 1009.8 |
| 20260906015554 | 23 | 160 | 1.6 | 1.6 | 0.00 | 0.00 | 0.00 | 55 | 1009.8 |
| 20260906015053 | 23 | 184 | 1.6 | 1.6 | 0.00 | 0.00 | 0.00 | 56 | 1009.7 |
| 20260906014548 | 23 | 12 | 1.6 | 3.2 | 0.00 | 0.00 | 0.00 | 56 | 1009.7 |
| 20260906014044 | 23 | 161 | 0.0 | 1.6 | 0.00 | 0.00 | 0.00 | 55 | 1009.8 |
| 20260906013539 | 23 | 197 | 0.0 | 0.0 | 0.00 | 0.00 | 0.00 | 55 | 1009.8 |
| 20260906013035 | 23 | 162 | 0.0 | 0.0 | 0.00 | 0.00 | 0.00 | 55 | 1009.6 |
| 20260906012530 | 23 | 232 | 1.6 | 3.2 | 0.00 | 0.00 | 0.00 | 55 | 1009.4 |
| 20260906012029 | 23 | 187 | 0.0 | 0.0 | 0.00 | 0.00 | 0.00 | 55 | 1009.7 |
| 20260906011525 | 23 | 188 | 0.0 | 0.0 | 0.00 | 0.00 | 0.00 | 54 | 1009.6 |
| 20260906011025 | 23 | 163 | 1.6 | 1.6 | 0.00 | 0.00 | 0.00 | 54 | 1009.8 |
| 20260906010520 | 23 | 182 | 0.0 | 0.0 | 0.00 | 0.00 | 0.00 | 55 | 1009.5 |
| 20260906010017 | 23 | 186 | 0.0 | 0.0 | 0.00 | 0.00 | 0.00 | 54 | 1009.5 |
| 20260906005516 | 23 | 186 | 0.0 | 0.0 | 0.00 | 0.00 | 0.00 | 54 | 1009.5 |
| 20260906005015 | 23 | 186 | 0.0 | 0.0 | 0.00 | 0.00 | 0.00 | 54 | 1009.6 |
| 20260906004514 | 23 | 186 | 0.0 | 0.0 | 0.00 | 0.00 | 0.00 | 54 | 1009.5 |
| 20260906004010 | 23 | 186 | 0.0 | 0.0 | 0.00 | 0.00 | 0.00 | 53 | 1009.5 |
| 20260906003505 | 23 | 191 | 0.0 | 0.0 | 0.00 | 0.00 | 0.00 | 53 | 1009.6 |
| 20260906003001 | 23 | 190 | 0.0 | 0.0 | 0.00 | 0.00 | 0.00 | 53 | 1009.4 |
| 20260906002501 | 23 | 184 | 0.0 | 0.0 | 0.00 | 0.00 | 0.00 | 53 | 1009.4 |
| 20260906001956 | 23 | 178 | 0.0 | 1.6 | 0.00 | 0.00 | 0.00 | 54 | 1009.4 |
| 20260906001452 | 23 | 189 | 0.0 | 1.6 | 0.00 | 0.00 | 0.00 | 56 | 1009.5 |
| 20260906000946 | 23 | 179 | 0.0 | 0.0 | 0.00 | 0.00 | 0.00 | 58 | 1009.5 |
| 20260906000442 | 23 | 190 | 0.0 | 0.0 | 0.00 | 0.00 | 0.00 | 61 | 1009.7 |
| 20260905235942 | 23 | 188 | 1.6 | 1.6 | 0.00 | 0.00 | 0.00 | 64 | 1009.5 |
| 20260905235442 | 23 | 161 | 0.0 | 1.6 | 0.00 | 0.00 | 0.00 | 68 | 1009.4 |
| 20260905234937 | 23 | 163 | 0.0 | 0.0 | 0.00 | 0.00 | 0.00 | 72 | 1009.5 |
| 20260905234432 | 23 | 45 | 0.0 | 0.0 | 0.00 | 0.00 | 0.00 | 72 | 1009.5 |
| 20260905233926 | 23 | 168 | 0.0 | 0.0 | 0.00 | 0.00 | 0.00 | 72 | 1009.6 |
| 20260905233422 | 23 | 146 | 1.6 | 1.6 | 0.00 | 0.00 | 0.00 | 71 | 1009.3 |
| 20260905232921 | 23 | 170 | 0.0 | 0.0 | 0.00 | 0.00 | 0.00 | 69 | 1009.4 |
| 20260905232417 | 23 | 168 | 0.0 | 0.0 | 0.00 | 0.00 | 0.00 | 66 | 1009.4 |
| 20260905231912 | 23 | 177 | 1.6 | 1.6 | 0.00 | 0.00 | 0.00 | 64 | 1009.4 |
| 20260905231408 | 24 | 176 | 0.0 | 0.0 | 0.00 | 0.00 | 0.00 | 64 | 1009.4 |
| 20260905230905 | 24 | 177 | 0.0 | 0.0 | 0.00 | 0.00 | 0.00 | 61 | 1009.4 |
| 20260905230403 | 24 | 142 | 1.6 | 1.6 | 0.00 | 0.00 | 0.00 | 60 | 1009.6 |
| 20260905225901 | 24 | 207 | 0.0 | 1.6 | 0.00 | 0.00 | 0.00 | 60 | 1009.4 |
| 20260905225356 | 24 | 159 | 1.6 | 1.6 | 0.00 | 0.00 | 0.00 | 60 | 1009.5 |
| 20260905224851 | 24 | 183 | 1.6 | 1.6 | 0.00 | 0.00 | 0.00 | 59 | 1009.4 |
| 20260905224347 | 24 | 162 | 0.0 | 0.0 | 0.00 | 0.00 | 0.00 | 60 | 1009.2 |
| 20260905223842 | 24 | 310 | 1.6 | 1.6 | 0.00 | 0.00 | 0.00 | 61 | 1009.3 |
| 20260905223340 | 24 | 342 | 1.6 | 1.6 | 0.00 | 0.00 | 0.00 | 62 | 1009.2 |
| 20260905222840 | 24 | 296 | 0.0 | 1.6 | 0.00 | 0.00 | 0.00 | 62 | 1009.0 |
| 20260905222338 | 24 | 64 | 1.6 | 3.2 | 0.00 | 0.00 | 0.00 | 62 | 1009.0 |
| 20260905221835 | 24 | 175 | 0.0 | 0.0 | 0.00 | 0.00 | 0.00 | 63 | 1009.2 |
| 20260905221331 | 24 | 194 | 1.6 | 1.6 | 0.00 | 0.00 | 0.00 | 64 | 1009.2 |
| 20260905220827 | 24 | 191 | 1.6 | 1.6 | 0.00 | 0.00 | 0.00 | 64 | 1009.2 |
| 20260905220323 | 24 | 188 | 0.0 | 0.0 | 0.00 | 0.00 | 0.00 | 64 | 1009.0 |
| 20260905215822 | 24 | 172 | 0.0 | 0.0 | 0.00 | 0.00 | 0.00 | 64 | 1009.0 |
| 20260905215318 | 25 | 171 | 0.0 | 0.0 | 0.00 | 0.00 | 0.00 | 63 | 1009.1 |
| 20260905214814 | 25 | 164 | 0.0 | 0.0 | 0.00 | 0.00 | 0.00 | 61 | 1008.9 |
| 20260905214309 | 25 | 159 | 0.0 | 1.6 | 0.00 | 0.00 | 0.00 | 59 | 1008.9 |
| 20260905213804 | 25 | 154 | 1.6 | 1.6 | 0.00 | 0.00 | 0.00 | 57 | 1008.8 |
| 20260905213300 | 25 | 205 | 0.0 | 1.6 | 0.00 | 0.00 | 0.00 | 56 | 1008.8 |
| 20260905212755 | 25 | 15 | 1.6 | 3.2 | 0.00 | 0.00 | 0.00 | 55 | 1008.8 |
| 20260905212254 | 25 | 259 | 3.2 | 3.2 | 0.00 | 0.00 | 0.00 | 54 | 1008.7 |
| 20260905211749 | 25 | 156 | 1.6 | 1.6 | 0.00 | 0.00 | 0.00 | 52 | 1008.7 |
| 20260905211244 | 25 | 239 | 1.6 | 1.6 | 0.00 | 0.00 | 0.00 | 51 | 1008.6 |
| 20260905210741 | 25 | 117 | 1.6 | 1.6 | 0.00 | 0.00 | 0.00 | 50 | 1008.7 |
| 20260905210240 | 25 | 342 | 1.6 | 3.2 | 0.00 | 0.00 | 0.00 | 49 | 1008.7 |
| 20260905205739 | 25 | 179 | 0.0 | 0.0 | 0.00 | 0.00 | 0.00 | 49 | 1008.5 |
| 20260905205234 | 25 | 163 | 0.0 | 0.0 | 0.00 | 0.00 | 0.00 | 49 | 1008.4 |
| 20260905204734 | 25 | 174 | 0.0 | 0.0 | 0.00 | 0.00 | 0.00 | 49 | 1008.4 |
| 20260905204230 | 25 | 172 | 0.0 | 0.0 | 0.00 | 0.00 | 0.00 | 49 | 1008.4 |
| 20260905203729 | 25 | 154 | 0.0 | 0.0 | 0.00 | 0.00 | 0.00 | 49 | 1008.4 |
| 20260905203224 | 25 | 191 | 0.0 | 0.0 | 0.00 | 0.00 | 0.00 | 50 | 1008.6 |
| 20260905202720 | 25 | 225 | 0.0 | 0.0 | 0.00 | 0.00 | 0.00 | 50 | 1008.3 |
| 20260905202215 | 26 | 165 | 0.0 | 1.6 | 0.00 | 0.00 | 0.00 | 50 | 1008.2 |
| 20260905201711 | 26 | 185 | 0.0 | 1.6 | 0.00 | 0.00 | 0.00 | 50 | 1008.3 |
| 20260905201211 | 26 | 172 | 0.0 | 0.0 | 0.00 | 0.00 | 0.00 | 51 | 1008.3 |
| 20260905200706 | 25 | 166 | 0.0 | 0.0 | 0.00 | 0.00 | 0.00 | 52 | 1008.1 |
| 20260905200201 | 25 | 201 | 0.0 | 0.0 | 0.00 | 0.00 | 0.00 | 53 | 1008.3 |
| 20260905195700 | 26 | 191 | 0.0 | 0.0 | 0.00 | 0.00 | 0.00 | 54 | 1008.1 |
| 20260905195155 | 25 | 181 | 0.0 | 0.0 | 0.00 | 0.00 | 0.00 | 55 | 1008.3 |
| 20260905194650 | 25 | 155 | 1.6 | 1.6 | 0.00 | 0.00 | 0.00 | 58 | 1008.1 |
| 20260905194150 | 25 | 178 | 0.0 | 0.0 | 0.00 | 0.00 | 0.00 | 61 | 1008.1 |
| 20260905193649 | 25 | 181 | 0.0 | 0.0 | 0.00 | 0.00 | 0.00 | 64 | 1008.1 |
| 20260905193145 | 25 | 181 | 0.0 | 0.0 | 0.00 | 0.00 | 0.00 | 64 | 1008.2 |
| 20260905192640 | 26 | 181 | 0.0 | 0.0 | 0.00 | 0.00 | 0.00 | 64 | 1008.0 |
| 20260905192137 | 26 | 172 | 0.0 | 0.0 | 0.00 | 0.00 | 0.00 | 64 | 1008.0 |
| 20260905191636 | 25 | 192 | 0.0 | 0.0 | 0.00 | 0.00 | 0.00 | 65 | 1007.9 |
| 20260905191134 | 25 | 190 | 0.0 | 0.0 | 0.00 | 0.00 | 0.00 | 66 | 1008.0 |
| 20260905190633 | 25 | 187 | 0.0 | 0.0 | 0.00 | 0.00 | 0.00 | 67 | 1007.8 |
| 20260905190132 | 25 | 199 | 0.0 | 0.0 | 0.00 | 0.00 | 0.00 | 68 | 1007.7 |
| 20260905185631 | 25 | 171 | 0.0 | 1.6 | 0.00 | 0.00 | 0.00 | 68 | 1007.9 |
| 20260905185126 | 25 | 171 | 0.0 | 0.0 | 0.00 | 0.00 | 0.00 | 68 | 1007.7 |
| 20260905184620 | 25 | 219 | 0.0 | 0.0 | 0.00 | 0.00 | 0.00 | 69 | 1007.9 |
| 20260905184119 | 25 | 212 | 1.6 | 1.6 | 0.00 | 0.00 | 0.00 | 70 | 1007.9 |
| 20260905183618 | 25 | 157 | 1.6 | 1.6 | 0.00 | 0.00 | 0.00 | 71 | 1007.8 |
| 20260905183114 | 25 | 180 | 0.0 | 0.0 | 0.00 | 0.00 | 0.00 | 71 | 1007.7 |
| 20260905182614 | 25 | 174 | 0.0 | 0.0 | 0.00 | 0.00 | 0.00 | 72 | 1007.7 |
| 20260905182113 | 26 | 194 | 0.0 | 0.0 | 0.00 | 0.00 | 0.00 | 73 | 1007.5 |
| 20260905181608 | 26 | 169 | 0.0 | 1.6 | 0.00 | 0.00 | 0.00 | 74 | 1007.5 |
| 20260905181107 | 26 | 165 | 1.6 | 1.6 | 0.00 | 0.00 | 0.00 | 75 | 1007.5 |
| 20260905180602 | 26 | 2 | 3.2 | 3.2 | 0.00 | 0.00 | 0.00 | 75 | 1007.4 |
| 20260905180057 | 26 | 320 | 1.6 | 1.6 | 0.00 | 0.00 | 0.00 | 75 | 1007.5 |
| 20260905175556 | 26 | 356 | 0.0 | 1.6 | 0.00 | 0.00 | 0.00 | 74 | 1007.4 |
| 20260905175052 | 26 | 182 | 0.0 | 1.6 | 0.00 | 0.00 | 0.00 | 72 | 1007.2 |
| 20260905174548 | 26 | 156 | 1.6 | 1.6 | 0.00 | 0.00 | 0.00 | 71 | 1007.0 |
| 20260905174043 | 27 | 170 | 0.0 | 0.0 | 0.00 | 0.00 | 0.00 | 68 | 1007.1 |
| 20260905173540 | 27 | 191 | 0.0 | 1.6 | 0.00 | 0.00 | 0.00 | 64 | 1006.9 |
| 20260905173035 | 28 | 165 | 1.6 | 1.6 | 0.00 | 0.00 | 0.00 | 60 | 1007.0 |
| 20260905172533 | 28 | 186 | 0.0 | 0.0 | 0.00 | 0.00 | 0.00 | 50 | 1006.8 |
| 20260905172029 | 28 | 186 | 0.0 | 0.0 | 0.00 | 0.00 | 0.00 | 50 | 1006.9 |
| 20260905171525 | 28 | 186 | 0.0 | 0.0 | 0.00 | 0.00 | 0.00 | 49 | 1006.9 |
| 20260905171021 | 29 | 195 | 0.0 | 0.0 | 0.00 | 0.00 | 0.00 | 49 | 1006.6 |
| 20260905170517 | 29 | 174 | 0.0 | 0.0 | 0.00 | 0.00 | 0.00 | 49 | 1006.7 |
| 20260905170012 | 29 | 175 | 0.0 | 1.6 | 0.00 | 0.00 | 0.00 | 48 | 1006.5 |
| 20260905165507 | 29 | 183 | 0.0 | 0.0 | 0.00 | 0.00 | 0.00 | 48 | 1006.4 |
| 20260905165002 | 30 | 187 | 0.0 | 0.0 | 0.00 | 0.00 | 0.00 | 47 | 1006.6 |
| 20260905164501 | 30 | 182 | 0.0 | 1.6 | 0.00 | 0.00 | 0.00 | 47 | 1006.5 |
| 20260905163956 | 30 | 173 | 0.0 | 0.0 | 0.00 | 0.00 | 0.00 | 47 | 1006.4 |
| 20260905163453 | 30 | 146 | 0.0 | 1.6 | 0.00 | 0.00 | 0.00 | 46 | 1006.4 |
| 20260905162948 | 30 | 160 | 1.6 | 1.6 | 0.00 | 0.00 | 0.00 | 45 | 1006.3 |
| 20260905162444 | 30 | 179 | 0.0 | 0.0 | 0.00 | 0.00 | 0.00 | 46 | 1006.2 |
| 20260905161938 | 30 | 159 | 1.6 | 1.6 | 0.00 | 0.00 | 0.00 | 47 | 1006.3 |
| 20260905161438 | 30 | 129 | 3.2 | 3.2 | 0.00 | 0.00 | 0.00 | 48 | 1006.2 |
| 20260905160936 | 30 | 196 | 3.2 | 4.8 | 0.00 | 0.00 | 0.00 | 48 | 1006.3 |
| 20260905160430 | 30 | 201 | 0.0 | 1.6 | 0.00 | 0.00 | 0.00 | 48 | 1006.2 |
| 20260905155929 | 30 | 209 | 1.6 | 1.6 | 0.00 | 0.00 | 0.00 | 48 | 1006.3 |
| 20260905155424 | 30 | 192 | 3.2 | 4.8 | 0.00 | 0.00 | 0.00 | 47 | 1006.2 |
| 20260905154923 | 31 | 165 | 3.2 | 4.8 | 0.00 | 0.00 | 0.00 | 47 | 1006.2 |
| 20260905154419 | 31 | 200 | 3.2 | 4.8 | 0.00 | 0.00 | 0.00 | 48 | 1006.3 |
| 20260905153914 | 31 | 177 | 3.2 | 3.2 | 0.00 | 0.00 | 0.00 | 47 | 1006.4 |
| 20260905153410 | 31 | 167 | 0.0 | 1.6 | 0.00 | 0.00 | 0.00 | 47 | 1006.5 |
| 20260905152910 | 32 | 191 | 1.6 | 3.2 | 0.00 | 0.00 | 0.00 | 45 | 1006.2 |
| 20260905152409 | 32 | 182 | 3.2 | 4.8 | 0.00 | 0.00 | 0.00 | 44 | 1006.3 |
| 20260905151904 | 32 | 204 | 3.2 | 4.8 | 0.00 | 0.00 | 0.00 | 45 | 1006.2 |
| 20260905151401 | 32 | 231 | 3.2 | 3.2 | 0.00 | 0.00 | 0.00 | 45 | 1006.3 |
| 20260905150901 | 32 | 212 | 1.6 | 1.6 | 0.00 | 0.00 | 0.00 | 45 | 1006.3 |
| 20260905150400 | 32 | 180 | 1.6 | 1.6 | 0.00 | 0.00 | 0.00 | 45 | 1006.5 |
| 20260905145858 | 32 | 176 | 1.6 | 1.6 | 0.00 | 0.00 | 0.00 | 44 | 1006.4 |
| 20260905145352 | 32 | 247 | 0.0 | 1.6 | 0.00 | 0.00 | 0.00 | 44 | 1006.5 |
| 20260905144851 | 32 | 205 | 3.2 | 3.2 | 0.00 | 0.00 | 0.00 | 44 | 1006.6 |
| 20260905144347 | 33 | 168 | 3.2 | 3.2 | 0.00 | 0.00 | 0.00 | 44 | 1006.4 |
| 20260905143845 | 33 | 197 | 1.6 | 3.2 | 0.00 | 0.00 | 0.00 | 44 | 1006.5 |
| 20260905143340 | 33 | 178 | 0.0 | 1.6 | 0.00 | 0.00 | 0.00 | 43 | 1006.4 |
| 20260905142840 | 33 | 188 | 0.0 | 0.0 | 0.00 | 0.00 | 0.00 | 44 | 1006.6 |
| 20260905142338 | 33 | 183 | 0.0 | 1.6 | 0.00 | 0.00 | 0.00 | 44 | 1006.5 |
| 20260905141834 | 33 | 191 | 1.6 | 1.6 | 0.00 | 0.00 | 0.00 | 44 | 1006.4 |
| 20260905141330 | 33 | 161 | 0.0 | 1.6 | 0.00 | 0.00 | 0.00 | 44 | 1006.5 |
| 20260905140826 | 32 | 207 | 3.2 | 4.8 | 0.00 | 0.00 | 0.00 | 44 | 1006.7 |
| 20260905140325 | 33 | 160 | 3.2 | 3.2 | 0.00 | 0.00 | 0.00 | 45 | 1006.7 |
| 20260905135824 | 33 | 132 | 1.6 | 1.6 | 0.00 | 0.00 | 0.00 | 44 | 1006.6 |
| 20260905135320 | 32 | 175 | 1.6 | 3.2 | 0.00 | 0.00 | 0.00 | 45 | 1006.6 |
| 20260905134816 | 32 | 179 | 4.8 | 6.4 | 0.00 | 0.00 | 0.00 | 45 | 1006.6 |
| 20260905134314 | 32 | 154 | 3.2 | 4.8 | 0.00 | 0.00 | 0.00 | 45 | 1006.6 |
| 20260905133814 | 32 | 181 | 1.6 | 1.6 | 0.00 | 0.00 | 0.00 | 46 | 1006.6 |
| 20260905133310 | 32 | 182 | 3.2 | 4.8 | 0.00 | 0.00 | 0.00 | 47 | 1006.6 |
| 20260905132809 | 32 | 185 | 1.6 | 3.2 | 0.00 | 0.00 | 0.00 | 47 | 1006.5 |
| 20260905132306 | 32 | 215 | 0.0 | 1.6 | 0.00 | 0.00 | 0.00 | 48 | 1006.4 |
| 20260905131759 | 33 | 187 | 3.2 | 3.2 | 0.00 | 0.00 | 0.00 | 46 | 1006.7 |
| 20260905131255 | 33 | 75 | 0.0 | 1.6 | 0.00 | 0.00 | 0.00 | 46 | 1006.6 |
| 20260905130749 | 33 | 192 | 3.2 | 3.2 | 0.00 | 0.00 | 0.00 | 47 | 1006.5 |
| 20260905130248 | 33 | 230 | 4.8 | 6.4 | 0.00 | 0.00 | 0.00 | 46 | 1006.7 |
| 20260905125744 | 32 | 235 | 4.8 | 6.4 | 0.00 | 0.00 | 0.00 | 47 | 1006.6 |
| 20260905125239 | 32 | 219 | 6.4 | 6.4 | 0.00 | 0.00 | 0.00 | 47 | 1006.6 |
| 20260905124736 | 32 | 174 | 4.8 | 6.4 | 0.00 | 0.00 | 0.00 | 47 | 1006.8 |
| 20260905124231 | 32 | 135 | 4.8 | 6.4 | 0.00 | 0.00 | 0.00 | 48 | 1006.8 |
| 20260905123726 | 32 | 173 | 3.2 | 4.8 | 0.00 | 0.00 | 0.00 | 48 | 1006.8 |
| 20260905123223 | 32 | 182 | 3.2 | 4.8 | 0.00 | 0.00 | 0.00 | 47 | 1006.9 |
| 20260905122723 | 32 | 143 | 3.2 | 4.8 | 0.00 | 0.00 | 0.00 | 48 | 1007.1 |
| 20260905122223 | 33 | 212 | 4.8 | 4.8 | 0.00 | 0.00 | 0.00 | 46 | 1007.1 |
| 20260905121718 | 32 | 189 | 1.6 | 1.6 | 0.00 | 0.00 | 0.00 | 47 | 1006.9 |
| 20260905121214 | 32 | 204 | 1.6 | 3.2 | 0.00 | 0.00 | 0.00 | 47 | 1007.0 |
| 20260905120713 | 32 | 190 | 4.8 | 6.4 | 0.00 | 0.00 | 0.00 | 47 | 1007.1 |
| 20260905120208 | 32 | 167 | 3.2 | 4.8 | 0.00 | 0.00 | 0.00 | 47 | 1007.1 |
| 20260905115708 | 32 | 181 | 1.6 | 3.2 | 0.00 | 0.00 | 0.00 | 46 | 1007.1 |
| 20260905115202 | 32 | 177 | 1.6 | 3.2 | 0.00 | 0.00 | 0.00 | 47 | 1007.1 |
| 20260905114702 | 32 | 241 | 3.2 | 3.2 | 0.00 | 0.00 | 0.00 | 48 | 1007.2 |
| 20260905114200 | 32 | 143 | 3.2 | 4.8 | 0.00 | 0.00 | 0.00 | 47 | 1007.3 |
| 20260905113655 | 32 | 156 | 1.6 | 3.2 | 0.00 | 0.00 | 0.00 | 47 | 1007.2 |
| 20260905113151 | 31 | 155 | 1.6 | 1.6 | 0.00 | 0.00 | 0.00 | 48 | 1007.1 |
| 20260905112650 | 31 | 190 | 4.8 | 6.4 | 0.00 | 0.00 | 0.00 | 50 | 1007.3 |
| 20260905112146 | 31 | 140 | 1.6 | 3.2 | 0.00 | 0.00 | 0.00 | 49 | 1007.3 |
| 20260905111646 | 32 | 174 | 0.0 | 1.6 | 0.00 | 0.00 | 0.00 | 49 | 1007.1 |
| 20260905111145 | 31 | 178 | 1.6 | 1.6 | 0.00 | 0.00 | 0.00 | 52 | 1007.3 |
| 20260905110644 | 31 | 184 | 0.0 | 1.6 | 0.00 | 0.00 | 0.00 | 51 | 1007.4 |
| 20260905110139 | 31 | 157 | 3.2 | 3.2 | 0.00 | 0.00 | 0.00 | 52 | 1007.4 |
| 20260905105635 | 31 | 207 | 1.6 | 1.6 | 0.00 | 0.00 | 0.00 | 52 | 1007.3 |
| 20260905105134 | 31 | 209 | 0.0 | 0.0 | 0.00 | 0.00 | 0.00 | 54 | 1007.3 |
| 20260905104629 | 31 | 186 | 0.0 | 0.0 | 0.00 | 0.00 | 0.00 | 56 | 1007.5 |
| 20260905104124 | 31 | 209 | 3.2 | 4.8 | 0.00 | 0.00 | 0.00 | 54 | 1007.5 |
| 20260905103620 | 31 | 197 | 4.8 | 6.4 | 0.00 | 0.00 | 0.00 | 54 | 1007.5 |
| 20260905103115 | 31 | 187 | 3.2 | 3.2 | 0.00 | 0.00 | 0.00 | 56 | 1007.3 |
| 20260905102611 | 30 | 170 | 1.6 | 1.6 | 0.00 | 0.00 | 0.00 | 57 | 1007.3 |
| 20260905102108 | 30 | 179 | 1.6 | 1.6 | 0.00 | 0.00 | 0.00 | 59 | 1007.4 |
| 20260905101605 | 30 | 186 | 3.2 | 4.8 | 0.00 | 0.00 | 0.00 | 60 | 1007.3 |
| 20260905101104 | 30 | 165 | 1.6 | 3.2 | 0.00 | 0.00 | 0.00 | 59 | 1007.3 |
| 20260905100601 | 30 | 116 | 4.8 | 9.7 | 0.00 | 0.00 | 0.00 | 60 | 1007.2 |
| 20260905100055 | 30 | 129 | 3.2 | 4.8 | 0.00 | 0.00 | 0.00 | 61 | 1007.4 |
| 20260905095549 | 30 | 144 | 3.2 | 3.2 | 0.00 | 0.00 | 0.00 | 61 | 1007.5 |
| 20260905095045 | 30 | 174 | 6.4 | 9.7 | 0.00 | 0.00 | 0.00 | 60 | 1007.5 |
| 20260905094539 | 30 | 185 | 1.6 | 1.6 | 0.00 | 0.00 | 0.00 | 60 | 1007.6 |
| 20260905094038 | 29 | 156 | 4.8 | 6.4 | 0.00 | 0.00 | 0.00 | 60 | 1007.6 |
| 20260905093533 | 29 | 166 | 3.2 | 3.2 | 0.00 | 0.00 | 0.00 | 59 | 1007.7 |
| 20260905093030 | 30 | 95 | 4.8 | 6.4 | 0.00 | 0.00 | 0.00 | 59 | 1007.4 |
| 20260905092529 | 30 | 198 | 1.6 | 4.8 | 0.00 | 0.00 | 0.00 | 57 | 1007.5 |
| 20260905092025 | 29 | 169 | 0.0 | 1.6 | 0.00 | 0.00 | 0.00 | 57 | 1007.3 |
| 20260905091524 | 29 | 152 | 3.2 | 4.8 | 0.00 | 0.00 | 0.00 | 57 | 1007.4 |
| 20260905091019 | 30 | 129 | 0.0 | 1.6 | 0.00 | 0.00 | 0.00 | 55 | 1007.4 |
| 20260905090519 | 30 | 200 | 1.6 | 3.2 | 0.00 | 0.00 | 0.00 | 54 | 1007.3 |
| 20260905090014 | 29 | 171 | 0.0 | 1.6 | 0.00 | 0.00 | 0.00 | 55 | 1007.4 |
| 20260905085512 | 29 | 167 | 1.6 | 3.2 | 0.00 | 0.00 | 0.00 | 54 | 1007.3 |
| 20260905085009 | 29 | 145 | 3.2 | 4.8 | 0.00 | 0.00 | 0.00 | 53 | 1007.1 |
| 20260905084508 | 30 | 125 | 3.2 | 4.8 | 0.00 | 0.00 | 0.00 | 51 | 1007.2 |
| 20260905084003 | 29 | 191 | 1.6 | 3.2 | 0.00 | 0.00 | 0.00 | 51 | 1007.2 |
| 20260905083458 | 30 | 182 | 3.2 | 4.8 | 0.00 | 0.00 | 0.00 | 53 | 1007.0 |
| 20260905082954 | 29 | 193 | 0.0 | 1.6 | 0.00 | 0.00 | 0.00 | 53 | 1007.0 |
| 20260905082450 | 29 | 175 | 1.6 | 3.2 | 0.00 | 0.00 | 0.00 | 53 | 1007.1 |
| 20260905081945 | 28 | 164 | 0.0 | 1.6 | 0.00 | 0.00 | 0.00 | 57 | 1007.1 |
| 20260905081440 | 28 | 160 | 1.6 | 1.6 | 0.00 | 0.00 | 0.00 | 57 | 1007.1 |
| 20260905080938 | 27 | 166 | 3.2 | 4.8 | 0.00 | 0.00 | 0.00 | 58 | 1006.9 |
| 20260905080434 | 27 | 121 | 1.6 | 3.2 | 0.00 | 0.00 | 0.00 | 61 | 1007.0 |
| 20260905075932 | 26 | 181 | 1.6 | 1.6 | 0.00 | 0.00 | 0.00 | 63 | 1007.0 |
| 20260905075427 | 26 | 228 | 1.6 | 3.2 | 0.00 | 0.00 | 0.00 | 64 | 1006.9 |
| 20260905074926 | 26 | 178 | 0.0 | 0.0 | 0.00 | 0.00 | 0.00 | 67 | 1006.6 |
| 20260905074422 | 26 | 181 | 0.0 | 0.0 | 0.00 | 0.00 | 0.00 | 68 | 1006.8 |
| 20260905073918 | 26 | 179 | 0.0 | 1.6 | 0.00 | 0.00 | 0.00 | 68 | 1006.7 |
| 20260905073413 | 26 | 221 | 1.6 | 1.6 | 0.00 | 0.00 | 0.00 | 68 | 1006.6 |
| 20260905072908 | 25 | 173 | 0.0 | 0.0 | 0.00 | 0.00 | 0.00 | 68 | 1006.6 |
| 20260905072402 | 25 | 166 | 1.6 | 1.6 | 0.00 | 0.00 | 0.00 | 68 | 1006.4 |
| 20260905071858 | 25 | 154 | 1.6 | 3.2 | 0.00 | 0.00 | 0.00 | 69 | 1006.2 |
| 20260905071355 | 25 | 177 | 0.0 | 0.0 | 0.00 | 0.00 | 0.00 | 69 | 1006.3 |
| 20260905070854 | 25 | 181 | 0.0 | 0.0 | 0.00 | 0.00 | 0.00 | 69 | 1006.5 |
| 20260905070351 | 25 | 167 | 0.0 | 1.6 | 0.00 | 0.00 | 0.00 | 68 | 1006.5 |
| 20260905065851 | 25 | 172 | 0.0 | 0.0 | 0.00 | 0.00 | 0.00 | 69 | 1006.5 |
| 20260905065349 | 25 | 181 | 0.0 | 0.0 | 0.00 | 0.00 | 0.00 | 69 | 1006.5 |
| 20260905064844 | 25 | 176 | 0.0 | 0.0 | 0.00 | 0.00 | 0.00 | 68 | 1006.7 |
| 20260905064339 | 25 | 167 | 0.0 | 0.0 | 0.00 | 0.00 | 0.00 | 66 | 1006.4 |
| 20260905063838 | 25 | 187 | 1.6 | 3.2 | 0.00 | 0.00 | 0.00 | 66 | 1006.3 |
| 20260905063334 | 24 | 196 | 1.6 | 3.2 | 0.00 | 0.00 | 0.00 | 67 | 1006.4 |
| 20260905062831 | 23 | 171 | 0.0 | 0.0 | 0.00 | 0.00 | 0.00 | 69 | 1006.5 |
| 20260905062330 | 23 | 185 | 0.0 | 0.0 | 0.00 | 0.00 | 0.00 | 72 | 1006.7 |
| 20260905061825 | 22 | 185 | 0.0 | 0.0 | 0.00 | 0.00 | 0.00 | 77 | 1006.4 |
| 20260905061325 | 22 | 185 | 0.0 | 0.0 | 0.00 | 0.00 | 0.00 | 81 | 1006.6 |
| 20260905060820 | 22 | 185 | 0.0 | 0.0 | 0.00 | 0.00 | 0.00 | 82 | 1006.5 |
| 20260905060317 | 22 | 175 | 0.0 | 0.0 | 0.00 | 0.00 | 0.00 | 83 | 1006.5 |
| 20260905055816 | 22 | 178 | 0.0 | 1.6 | 0.00 | 0.00 | 0.00 | 84 | 1006.5 |
| 20260905055311 | 22 | 188 | 0.0 | 0.0 | 0.00 | 0.00 | 0.00 | 84 | 1006.6 |
| 20260905054811 | 22 | 190 | 0.0 | 0.0 | 0.00 | 0.00 | 0.00 | 84 | 1006.7 |
| 20260905054307 | 22 | 182 | 0.0 | 0.0 | 0.00 | 0.00 | 0.00 | 84 | 1006.2 |
| 20260905053806 | 22 | 182 | 0.0 | 0.0 | 0.00 | 0.00 | 0.00 | 84 | 1006.3 |
| 20260905053301 | 22 | 183 | 0.0 | 0.0 | 0.00 | 0.00 | 0.00 | 84 | 1006.2 |
| 20260905052802 | 22 | 173 | 0.0 | 0.0 | 0.00 | 0.00 | 0.00 | 84 | 1006.6 |
| 20260905052302 | 22 | 148 | 1.6 | 1.6 | 0.00 | 0.00 | 0.00 | 84 | 1006.3 |
| 20260905051801 | 21 | 166 | 0.0 | 0.0 | 0.00 | 0.00 | 0.00 | 83 | 1006.2 |
| 20260905051258 | 21 | 169 | 0.0 | 0.0 | 0.00 | 0.00 | 0.00 | 82 | 1006.4 |
| 20260905050754 | 21 | 168 | 0.0 | 0.0 | 0.00 | 0.00 | 0.00 | 80 | 1006.4 |
| 20260905050250 | 21 | 164 | 0.0 | 0.0 | 0.00 | 0.00 | 0.00 | 80 | 1006.3 |
| 20260905045745 | 21 | 169 | 0.0 | 0.0 | 0.00 | 0.00 | 0.00 | 80 | 1006.2 |
| 20260905045240 | 21 | 169 | 0.0 | 0.0 | 0.00 | 0.00 | 0.00 | 82 | 1006.3 |
| 20260905044735 | 21 | 169 | 0.0 | 0.0 | 0.00 | 0.00 | 0.00 | 83 | 1006.1 |
| 20260905044231 | 21 | 169 | 0.0 | 0.0 | 0.00 | 0.00 | 0.00 | 83 | 1006.1 |
| 20260905043729 | 21 | 164 | 0.0 | 0.0 | 0.00 | 0.00 | 0.00 | 83 | 1006.1 |
| 20260905043229 | 21 | 164 | 0.0 | 0.0 | 0.00 | 0.00 | 0.00 | 82 | 1006.0 |
| 20260905042724 | 21 | 163 | 0.0 | 0.0 | 0.00 | 0.00 | 0.00 | 82 | 1006.0 |
| 20260905042224 | 22 | 162 | 0.0 | 0.0 | 0.00 | 0.00 | 0.00 | 82 | 1006.0 |
| 20260905041720 | 22 | 166 | 0.0 | 0.0 | 0.00 | 0.00 | 0.00 | 82 | 1005.9 |
| 20260905041215 | 22 | 162 | 0.0 | 1.6 | 0.00 | 0.00 | 0.00 | 82 | 1006.0 |
| 20260905040709 | 21 | 152 | 1.6 | 1.6 | 0.00 | 0.00 | 0.00 | 82 | 1005.9 |